[[{"header":{"parameterUnit":"m.s-1","parameterCategory":1,"la1":30.2991,"la2":30.254,"lo1":-89.0895,"lo2":-89.0444,"dy":0.0017,"dx":0.0017,"nx":28,"ny":28,"refTime":"2025-03-01T09:00:00:Z","depth":0,"parameterNumber":2,"parameterNumberName":"U-component_of_WINDS"},"data":[0,0,0,0,0,0,0,0,0,0,0,0,0,0,0,0,0,0,0,0,0,0,0,0,0,0,0,0,0,0,0,0,0,0,0,0,0,0,0,0,0,0,0,0,0,0,0,0,0,0,0,0,0,0,0,0,0,0,1.6353,1.6353,0,1.6361,1.6362,1.6362,1.6351,1.635,1.635,1.635,1.6358,1.6359,1.6359,0,0,0,0,0,0,0,0,0,0,0,0,0,1.6328,1.6328,1.6353,1.6353,1.6353,1.6361,1.6362,1.6362,1.6351,1.635,1.635,1.6349,1.6358,1.6359,1.6359,0,0,0,0,0,0,0,0,0,0,0,0,0,1.6338,1.6328,1.6353,1.6348,1.6348,1.6361,1.6362,1.6362,1.6351,1.635,1.635,1.6349,1.6358,1.6359,1.636,1.6377,0,0,1.6362,1.6363,0,0,0,0,0,0,0,0,1.6337,1.6339,1.6349,1.6349,1.6348,1.6354,1.6356,1.6367,1.6351,1.635,1.635,1.6349,1.6357,1.6358,1.6361,1.6377,1.6378,1.6362,1.6363,1.6363,1.6364,0,0,0,0,0,0,0,1.6336,1.6338,1.6356,1.6349,1.6349,1.6347,1.6347,1.6358,1.6357,1.635,1.6349,1.635,1.6357,1.636,1.6361,1.6378,1.6362,1.6363,1.6364,1.6364,1.6411,1.6412,0,0,0,0,0,0,1.6336,1.6338,1.6356,1.6356,1.6341,1.6348,1.6348,1.6353,1.6357,1.6357,1.6351,1.635,1.6359,1.636,1.6362,1.6383,1.6363,1.6364,1.6365,1.641,1.6411,1.6412,0,0,0,0,0,0,1.6336,1.6338,1.6355,1.6347,1.6349,1.6349,1.6354,1.6354,1.6357,1.6357,1.6357,1.6354,1.6359,1.636,1.6374,1.6384,1.6365,1.6365,1.641,1.6411,1.6412,1.6427,0,0,0,0,0,0,1.6335,1.6338,1.6344,1.6347,1.6349,1.6367,1.6355,1.6354,1.6358,1.6357,1.6361,1.6361,1.6358,1.6373,1.6375,1.6384,1.6366,1.6409,1.641,1.6411,1.6425,1.6428,1.643,0,0,0,0,0,1.6334,1.6347,1.6344,1.6346,1.6357,1.6368,1.6369,1.6366,1.6359,1.6366,1.6367,1.636,1.6382,1.6374,1.6376,1.6386,1.6408,1.641,1.6411,1.6424,1.6428,1.643,0,0,0,0,0,0,1.6344,1.6347,1.6344,1.6359,1.6363,1.6366,1.6374,1.637,1.6376,1.6374,1.6371,1.6372,1.6386,1.6388,1.6378,1.6405,1.6394,1.6396,1.6403,1.6406,1.6409,1.6408,1.6367,0,0,0,0,0,1.6349,1.6357,1.6359,1.6372,1.6374,1.6374,1.6378,1.6376,1.638,1.6382,1.6384,1.6388,1.6396,1.6401,1.6409,1.6426,1.6427,1.6434,1.6437,1.6439,1.6441,1.6451,1.6455,1.6417,1.6417,1.6417,0,0,1.6357,1.636,1.6365,1.6374,1.6377,1.6386,1.6375,1.6385,1.6392,1.6383,1.6396,1.6398,1.6403,1.6419,1.6426,1.642,1.6452,1.6441,1.6443,1.6443,1.6453,1.6457,1.646,1.6418,1.6418,1.6418,0,0,1.6377,1.6379,1.6391,1.6395,1.64,1.64,1.6403,1.6407,1.6408,1.6421,1.6415,1.6424,1.6437,1.6441,1.6445,1.647,1.6464,1.6472,1.6485,1.6496,1.6499,1.6501,1.6511,1.6514,1.6474,1.6474,1.6474,0,1.6386,1.6399,1.6397,1.6408,1.6412,1.6406,1.6419,1.6422,1.643,1.6433,1.6427,1.6446,1.6448,1.6466,1.6472,1.6475,1.6479,1.6471,1.6499,1.6501,1.6504,1.6512,1.6516,1.6475,1.6475,1.6475,1.6475,0,1.6411,1.6421,1.6429,1.6438,1.6443,1.6455,1.6455,1.6461,1.6459,1.646,1.6475,1.6478,1.6487,1.6491,1.6488,1.6509,1.6505,1.6499,1.6488,1.6508,1.6516,1.652,1.6476,1.6476,1.6476,1.6475,0,0,1.6436,1.6444,1.6448,1.6452,1.6458,1.6466,1.6478,1.6487,1.6493,1.6499,1.6509,1.6522,1.6517,1.6521,1.652,1.6529,1.6549,1.6522,1.6522,1.6527,1.6572,1.6577,1.6581,1.6546,1.6547,1.6547,1.6572,0,1.6456,1.6476,1.6476,1.6495,1.6504,1.65,1.6511,1.6516,1.6518,1.6527,1.6529,1.6538,1.653,1.6533,1.6542,1.6545,1.6558,1.6543,1.6556,1.6556,1.6555,1.6585,1.6589,1.6612,1.6575,1.6576,1.6576,0,1.6482,1.649,1.651,1.6517,1.6521,1.653,1.6539,1.6548,1.6554,1.6555,1.6562,1.6559,1.6572,1.6562,1.658,1.657,1.6575,1.6578,1.6578,1.6579,1.6567,1.6587,1.6619,1.6623,1.6581,1.6581,1.658,0,1.6498,1.6514,1.6529,1.6532,1.6541,1.6548,1.6551,1.6558,1.6564,1.6572,1.6576,1.6586,1.6591,1.6599,1.66,1.6592,1.6619,1.6608,1.662,1.662,1.6625,1.6624,1.6659,1.6629,1.6629,1.6629,1.6629,0,1.6521,1.6533,1.6536,1.6545,1.656,1.656,1.6575,1.6578,1.6584,1.6594,1.6591,1.66,1.6601,1.6611,1.6612,1.6627,1.6629,1.6631,1.6631,1.6631,1.6631,1.6634,1.6632,1.663,1.663,1.6629,1.6629,0,1.6541,1.6543,1.6559,1.6567,1.6569,1.6579,1.6586,1.6595,1.6597,1.661,1.6613,1.6617,1.6629,1.6631,1.6644,1.6645,1.6664,1.6662,1.6661,1.6661,1.6673,1.6672,1.6711,1.6716,1.6683,1.6683,1.6683,0,1.6555,1.6565,1.6574,1.6581,1.6585,1.6596,1.6602,1.6604,1.6611,1.6621,1.6629,1.6641,1.665,1.6669,1.6673,1.6684,1.6683,1.6696,1.6684,1.6685,1.6683,1.6683,1.6684,1.6698,1.6698,1.6698,1.6699,0,1.6579,1.6581,1.659,1.6601,1.661,1.6618,1.6626,1.6632,1.6635,1.6643,1.6655,1.6663,1.6678,1.669,1.6701,1.6705,1.6703,1.6703,1.6706,1.6706,1.6705,1.6706,1.6667,1.6701,1.6701,1.6701,1.6701,1.6701,1.6597,1.6606,1.6614,1.6626,1.6633,1.6641,1.665,1.6654,1.6665,1.6677,1.6678,1.6692,1.67,1.6715,1.6721,1.6732,1.6728,1.6732,1.6734,1.6735,1.6736,1.6704,1.6734,1.6734,1.6734,1.6734,1.6734,0,1.6621,1.6627,1.6638,1.665,1.666,1.6657,1.6667,1.6675,1.6687,1.6695,1.6705,1.6721,1.6733,1.6739,1.6751,1.6759,1.6758,1.6762,1.6761,1.6763,1.6739,1.6735,1.6763,1.6763,1.6763,1.6763,1.6763,1.6763,1.6635,1.6651,1.6654,1.6673,1.6679,1.6693,1.6699,1.6707,1.6714,1.6731,1.6741,1.6745,1.6753,1.6766,1.6778,1.678,1.6784,1.6789,1.679,1.6767,1.6764,1.6761,1.6757,1.679,1.679,1.6813,1.6813,1.6813]},{"header":{"parameterUnit":"m.s-1","parameterCategory":1,"la1":30.2991,"la2":30.254,"lo1":-89.0895,"lo2":-89.0444,"dy":0.0017,"dx":0.0017,"nx":28,"ny":28,"refTime":"2025-03-01T09:00:00:Z","depth":0,"parameterNumber":3,"parameterNumberName":"V-component_of_WINDS"},"data":[0,0,0,0,0,0,0,0,0,0,0,0,0,0,0,0,0,0,0,0,0,0,0,0,0,0,0,0,0,0,0,0,0,0,0,0,0,0,0,0,0,0,0,0,0,0,0,0,0,0,0,0,0,0,0,0,0,0,-1.1497,-1.1497,0,-1.1462,-1.1462,-1.1461,-1.145,-1.1451,-1.1451,-1.1451,-1.1413,-1.1412,-1.1411,0,0,0,0,0,0,0,0,0,0,0,0,0,-1.1555,-1.1554,-1.1497,-1.1497,-1.1496,-1.1462,-1.1462,-1.1461,-1.145,-1.1451,-1.1451,-1.1451,-1.1413,-1.1412,-1.141,0,0,0,0,0,0,0,0,0,0,0,0,0,-1.1526,-1.1554,-1.1497,-1.1487,-1.1486,-1.1462,-1.1461,-1.1461,-1.145,-1.1451,-1.1451,-1.1451,-1.1414,-1.1412,-1.141,-1.1394,0,0,-1.1405,-1.1404,0,0,0,0,0,0,0,0,-1.1527,-1.1524,-1.1489,-1.1488,-1.1486,-1.1461,-1.1468,-1.1438,-1.145,-1.1464,-1.1451,-1.1451,-1.1429,-1.1426,-1.1418,-1.1392,-1.139,-1.1405,-1.1404,-1.1403,-1.1402,0,0,0,0,0,0,0,-1.1529,-1.1525,-1.1483,-1.1488,-1.1487,-1.1484,-1.148,-1.1462,-1.1445,-1.1463,-1.1462,-1.1458,-1.1428,-1.142,-1.1417,-1.139,-1.1405,-1.1403,-1.1402,-1.1401,-1.135,-1.135,0,0,0,0,0,0,-1.1533,-1.1527,-1.1484,-1.1482,-1.1508,-1.1483,-1.1478,-1.1469,-1.1445,-1.1442,-1.1458,-1.1457,-1.1423,-1.1419,-1.1416,-1.1396,-1.1403,-1.1401,-1.14,-1.1351,-1.135,-1.135,0,0,0,0,0,0,-1.1535,-1.153,-1.1486,-1.1504,-1.1498,-1.1481,-1.1471,-1.1468,-1.146,-1.1441,-1.1438,-1.1453,-1.1423,-1.1418,-1.14,-1.1395,-1.14,-1.1399,-1.1351,-1.1351,-1.135,-1.1356,0,0,0,0,0,0,-1.1536,-1.153,-1.1524,-1.1504,-1.1498,-1.147,-1.147,-1.1467,-1.1457,-1.1457,-1.1436,-1.1433,-1.1423,-1.1403,-1.1398,-1.1392,-1.1397,-1.1351,-1.1351,-1.135,-1.1356,-1.1356,-1.1356,0,0,0,0,0,-1.1538,-1.1526,-1.1523,-1.1518,-1.1489,-1.147,-1.1466,-1.1455,-1.1457,-1.145,-1.1439,-1.1434,-1.1396,-1.1401,-1.1396,-1.1389,-1.1352,-1.1351,-1.135,-1.1356,-1.1356,-1.1356,0,0,0,0,0,0,-1.1544,-1.1523,-1.152,-1.1501,-1.1488,-1.1468,-1.1459,-1.1455,-1.144,-1.144,-1.1427,-1.1423,-1.1406,-1.1396,-1.1401,-1.1373,-1.1374,-1.1372,-1.138,-1.138,-1.1379,-1.1382,-1.1396,0,0,0,0,0,-1.1543,-1.153,-1.1512,-1.1497,-1.149,-1.1476,-1.1468,-1.1461,-1.1446,-1.144,-1.1427,-1.1413,-1.1398,-1.1388,-1.1373,-1.1355,-1.1351,-1.1348,-1.1348,-1.1348,-1.1346,-1.1338,-1.1337,-1.1348,-1.1348,-1.1348,0,0,-1.154,-1.1528,-1.152,-1.1498,-1.1486,-1.1473,-1.1471,-1.1457,-1.1447,-1.1438,-1.142,-1.141,-1.1393,-1.1375,-1.1367,-1.1366,-1.1343,-1.1347,-1.1347,-1.1346,-1.1337,-1.1336,-1.1335,-1.1348,-1.1348,-1.1348,0,0,-1.1529,-1.1518,-1.1505,-1.1494,-1.1478,-1.1469,-1.1466,-1.1448,-1.1442,-1.1424,-1.1418,-1.1406,-1.138,-1.1369,-1.136,-1.1347,-1.1342,-1.1343,-1.1341,-1.1332,-1.1332,-1.1331,-1.1327,-1.1326,-1.1342,-1.1342,-1.1342,0,-1.1528,-1.1508,-1.1498,-1.1485,-1.1476,-1.1469,-1.1456,-1.1445,-1.1425,-1.1419,-1.1419,-1.1389,-1.1376,-1.1357,-1.1354,-1.1347,-1.1343,-1.1345,-1.1333,-1.1332,-1.1331,-1.1327,-1.1326,-1.1342,-1.1342,-1.1342,-1.1342,0,-1.1508,-1.1494,-1.1486,-1.1468,-1.1458,-1.1444,-1.1433,-1.1424,-1.1419,-1.141,-1.1393,-1.1379,-1.1362,-1.1357,-1.1351,-1.1337,-1.1337,-1.1335,-1.1335,-1.133,-1.1326,-1.1325,-1.1342,-1.1342,-1.1342,-1.1342,0,0,-1.1497,-1.1476,-1.1473,-1.1466,-1.1448,-1.1437,-1.1425,-1.1409,-1.1402,-1.1389,-1.1378,-1.1358,-1.1357,-1.1347,-1.134,-1.1332,-1.1325,-1.1331,-1.1331,-1.1331,-1.1309,-1.1311,-1.1309,-1.1322,-1.1321,-1.1321,-1.1311,0,-1.1484,-1.1461,-1.1453,-1.1434,-1.1422,-1.1417,-1.1405,-1.1394,-1.1386,-1.1374,-1.1365,-1.1352,-1.1351,-1.1345,-1.1337,-1.1327,-1.132,-1.1328,-1.1311,-1.1311,-1.1316,-1.1307,-1.1308,-1.1299,-1.1309,-1.1309,-1.1309,0,-1.1465,-1.1454,-1.1434,-1.142,-1.1415,-1.1405,-1.1391,-1.138,-1.1368,-1.1362,-1.1353,-1.1347,-1.1333,-1.1335,-1.1317,-1.1323,-1.1316,-1.131,-1.1309,-1.1307,-1.1309,-1.1305,-1.1296,-1.1295,-1.1307,-1.1307,-1.1307,0,-1.1461,-1.144,-1.1426,-1.1419,-1.1403,-1.1396,-1.1389,-1.1377,-1.1368,-1.1356,-1.1351,-1.1338,-1.133,-1.132,-1.1311,-1.1313,-1.1294,-1.1294,-1.1289,-1.129,-1.1285,-1.1285,-1.1275,-1.1281,-1.1281,-1.1281,-1.1281,0,-1.1447,-1.1435,-1.1424,-1.1415,-1.1402,-1.1394,-1.1381,-1.1373,-1.1363,-1.1353,-1.1347,-1.1337,-1.1326,-1.1315,-1.1308,-1.1295,-1.1291,-1.1287,-1.1285,-1.1287,-1.1288,-1.1282,-1.1282,-1.128,-1.128,-1.128,-1.128,0,-1.1439,-1.1431,-1.1415,-1.1402,-1.1398,-1.1389,-1.1377,-1.1369,-1.1362,-1.1349,-1.1346,-1.1334,-1.1321,-1.1312,-1.1295,-1.129,-1.1276,-1.1274,-1.1281,-1.128,-1.1275,-1.1276,-1.1261,-1.1259,-1.1266,-1.1266,-1.1266,0,-1.1431,-1.1422,-1.1408,-1.1402,-1.1395,-1.1384,-1.1376,-1.1368,-1.136,-1.1346,-1.134,-1.1327,-1.1316,-1.1296,-1.1286,-1.1274,-1.1271,-1.1267,-1.1269,-1.1273,-1.1272,-1.1273,-1.1272,-1.1267,-1.1267,-1.1267,-1.1267,0,-1.1417,-1.1414,-1.1404,-1.1393,-1.1384,-1.1374,-1.1364,-1.1359,-1.135,-1.1341,-1.1329,-1.1321,-1.1305,-1.1292,-1.1279,-1.1272,-1.1268,-1.1266,-1.1264,-1.1266,-1.1271,-1.1269,-1.128,-1.1266,-1.1266,-1.1266,-1.1266,-1.1266,-1.1409,-1.1402,-1.1392,-1.1381,-1.1373,-1.1364,-1.1356,-1.1349,-1.1339,-1.1326,-1.1322,-1.1309,-1.1298,-1.128,-1.1273,-1.1263,-1.1263,-1.126,-1.1259,-1.1259,-1.126,-1.1273,-1.1261,-1.1261,-1.1261,-1.1261,-1.1261,0,-1.1396,-1.139,-1.138,-1.1367,-1.1359,-1.1357,-1.1347,-1.134,-1.133,-1.132,-1.131,-1.1297,-1.1286,-1.1276,-1.1264,-1.1258,-1.1256,-1.1255,-1.1255,-1.1254,-1.126,-1.1263,-1.1257,-1.1257,-1.1257,-1.1257,-1.1257,-1.1257,-1.1388,-1.1376,-1.1372,-1.1356,-1.135,-1.1338,-1.1333,-1.1325,-1.1318,-1.1304,-1.1295,-1.1289,-1.1279,-1.1267,-1.1257,-1.1254,-1.125,-1.125,-1.1247,-1.1253,-1.1253,-1.1254,-1.1256,-1.1249,-1.1249,-1.1241,-1.1241,-1.1241]}]]